Tracking 30744 objects as of 23-Jun-2025
HD Live streaming from Space Station
objects crossing your sky now

SL-12 R/B(2)

Track SL-12 R/B(2) now!


NORAD ID: 14951
Int'l Code: 1984-031F
Perigee: 35,972.4 km
Apogee: 36,093.5 km
Inclination: 9.8 °
Period: 1,448.3 minutes
Semi major axis: 42403 km
RCS: 2.1273 m2 (large)
Launch date: March 29, 1984
Source: Commonwealth of Independent States (former USSR) (CIS)
Launch site: TYURATAM MISSILE AND SPACE COMPLEX (TTMTR)

Note: This is a ROCKET BODY
Your satellite tracking list
Your tracking list is empty




NASA's NSSDC Master Catalog

Two Line Element Set (TLE):
1 14951U 84031F   25174.47358825  .00000095  00000-0  00000+0 0  9990
2 14951   9.7587 314.9740 0014283 242.7467 106.4892  0.99424472116230
Source of the keplerian elements: AFSPC